Location: Bauersach School (historical)
(38.0926°N, 89.4806°W)
Time: 02:26:51
(UTC+00:00)

Cosmos 1726 Rocket - Pass Details

Date: 11 December 2025
Orbit: 553 x 663 km, 82.5° (Epoch: 15 January)

Event Time Altitude Azimuth Distance (km) Brightness Sun altitude
Rises 23:05:49 0° 166° (SSE) 2,981 7.2 -5.6°
Reaches altitude 10° 23:08:12 10° 158° (SSE) 2,075 6.3 -6.1°
Maximum altitude 23:12:27 37° 91° (E) 1,031 4.3 -6.8°
Drops below altitude 10° 23:16:41 10° 25° (NNE) 2,073 5.8 -7.6°
Sets 23:19:03 0° 17° (NNE) 2,977 6.7 -8.0°
